Wind_Speed
15 14 14 15 14 12 12 12 11 11 11 9 9 10 10 11 11 10 9 9 8 9 9 9 8 8 8 7 7 7 7 7 7 7 6 6 6 6 5 4 4 3
16 14 13 14 14 14 13 13 13 13 12 11 10 10 11 12 13 11 11 10 9 9 9 8 8 7 7 7 6 6 6 6 6 6 5 5 5 4 4 4 3 3
21 18 16 15 14 15 16 15 14 14 14 13 13 13 13 14 14 13 12 11 10 10 9 9 8 8 7 7 7 7 6 6 6 5 5 5 4 4 3 3 3 3
25 24 21 18 15 15 17 17 16 15 15 15 15 15 16 16 16 15 14 13 12 11 10 9 9 8 8 8 7 7 7 7 6 5 4 4 4 3 3 3 3 3
24 23 21 19 16 14 16 18 19 18 16 16 17 17 17 17 17 16 16 15 13 12 12 10 10 9 8 8 7 7 7 7 6 5 4 4 3 3 2 2 2 3
19 20 19 18 16 15 15 16 18 19 19 18 18 18 19 19 19 18 17 16 15 14 13 12 11 9 8 8 7 7 7 7 6 6 5 4 3 2 2 1 2 2
18 19 18 18 17 18 18 17 16 18 19 19 19 19 20 20 20 19 19 18 17 16 15 14 12 11 9 8 8 7 7 7 7 6 5 5 4 3 2 1 1 2
18 19 19 18 19 19 19 18 16 16 18 19 19 20 21 21 21 20 20 19 18 17 16 15 14 13 11 10 9 9 8 7 7 6 5 5 4 3 2 1 0 1
16 18 18 19 20 20 20 20 18 17 18 19 20 20 21 22 21 22 21 20 19 18 17 16 15 14 12 11 11 10 9 8 7 6 5 5 4 3 1 1 1 2
12 14 16 17 18 19 20 19 18 17 18 19 19 19 21 22 22 23 23 22 21 19 19 18 17 15 14 13 12 11 10 10 8 7 6 5 4 3 2 2 2 3
10 11 13 15 15 15 16 16 17 17 18 19 19 20 21 22 23 23 23 23 22 21 20 19 18 17 16 15 14 12 11 10 9 8 7 5 4 3 3 3 3 3
8 9 11 13 13 13 15 17 18 18 18 19 20 20 21 22 24 24 24 24 22 21 21 20 19 18 17 16 15 13 12 10 9 8 7 6 4 3 3 3 3 3
7 8 10 11 12 13 15 16 16 18 18 18 18 19 20 21 23 23 23 23 23 22 21 20 20 19 17 17 15 14 12 11 9 8 6 6 4 4 4 4 4 3
8 8 8 10 11 12 14 15 16 17 18 17 16 17 18 19 19 19 19 20 22 23 22 21 20 19 18 17 15 14 12 11 9 7 6 5 4 4 4 4 4 4
7 7 7 7 9 10 12 14 15 17 17 17 16 17 17 18 20 22 22 21 22 22 21 21 20 19 18 18 16 14 12 10 8 7 6 5 4 4 4 4 4 4
7 7 7 7 8 9 9 11 13 15 16 16 17 17 17 17 20 23 23 23 23 23 22 21 18 17 18 19 17 14 11 9 8 6 5 5 4 5 4 4 5 5
9 9 9 8 8 8 8 9 10 12 14 14 15 15 16 18 21 24 26 25 23 23 24 22 19 19 21 20 17 14 11 9 7 6 6 5 5 5 5 5 6 6
10 10 10 9 9 9 8 8 9 10 12 12 13 15 18 20 23 26 28 27 24 22 21 19 18 20 20 17 14 12 9 8 7 6 6 6 6 6 6 6 7 7
11 10 10 10 9 9 8 8 8 9 11 12 14 16 17 19 22 24 25 25 23 22 21 20 19 19 18 15 12 9 7 6 6 6 6 6 7 7 7 8 8 9
10 10 10 10 10 9 8 8 8 9 11 12 14 16 17 18 21 23 24 23 22 22 22 21 20 19 17 14 11 8 7 6 6 6 6 6 7 8 9 10 10 10
10 10 10 10 11 10 10 9 9 10 11 12 14 15 16 17 19 22 23 22 21 21 19 18 19 19 16 13 10 8 7 5 5 6 6 7 8 9 10 11 11 11
10 11 11 11 12 11 11 11 11 11 12 12 14 15 15 17 19 21 21 20 20 19 17 16 18 19 15 12 10 9 7 5 5 7 7 8 9 10 11 12 12 12
11 12 12 12 12 12 13 12 12 12 13 13 15 15 15 17 18 19 19 19 18 17 15 14 16 17 13 10 10 9 7 5 6 7 8 9 10 11 12 12 13 13
13 13 14 14 14 14 14 13 13 13 13 14 15 16 17 17 17 17 17 17 17 16 14 13 14 13 10 8 9 8 6 5 7 8 9 10 11 12 12 13 14 15
14 14 15 15 15 15 15 14 14 13 14 14 16 17 17 17 17 17 17 19 19 16 13 12 11 10 8 7 8 7 6 6 8 10 10 11 12 13 13 14 14 15
14 14 15 16 17 17 16 15 14 13 14 15 16 17 17 17 17 17 18 19 17 15 13 11 10 9 7 6 6 7 8 9 10 11 12 13 13 14 15 15 15 16
Wind_Direction
206 201 194 189 190 190 188 187 182 176 177 177 176 175 171 166 162 157 147 139 132 125 122 120 115 112 107 102 99 95 91 90 87 85 85 81 78 73 64 55 40 14
211 209 206 199 194 192 189 188 185 182 182 181 178 176 172 169 168 164 157 150 144 137 132 128 123 119 115 112 108 103 98 95 92 88 87 83 78 73 64 52 35 5
215 214 213 209 200 195 196 195 191 188 186 183 179 176 173 172 172 170 167 160 156 152 146 141 138 133 129 126 122 117 112 106 102 100 93 83 73 68 59 44 28 3
218 219 218 216 210 204 204 205 202 195 189 186 182 178 174 174 175 174 172 169 164 161 158 154 149 146 143 140 135 129 125 120 116 115 107 94 80 68 56 34 19 1
219 222 223 222 219 212 208 209 210 205 198 191 185 182 178 177 178 177 177 176 173 170 166 163 160 156 153 150 145 140 135 129 127 128 123 114 99 80 61 32 10 352
219 223 225 225 224 221 217 214 212 209 206 200 192 188 183 180 181 181 181 181 178 176 173 170 168 164 162 159 154 149 144 139 138 140 136 131 126 114 101 53 1 337
222 226 227 226 225 226 226 223 216 210 209 205 198 194 189 185 185 185 185 184 183 181 179 176 174 171 170 168 163 155 149 147 147 149 146 141 143 143 143 131 3 325
228 231 232 231 229 228 229 227 222 214 210 205 200 198 194 190 189 188 187 187 186 185 183 181 179 176 175 174 170 165 160 160 160 159 157 153 154 157 160 169 255 305
232 233 234 234 231 230 230 227 224 218 214 209 204 200 198 196 193 190 189 190 189 187 184 182 180 178 178 177 176 173 171 171 170 171 170 169 170 175 194 237 268 289
238 238 238 237 235 234 233 228 222 218 216 214 209 202 199 198 195 193 192 190 189 187 184 182 180 179 180 180 179 179 178 175 175 177 177 179 185 197 231 261 270 277
250 247 247 245 241 241 241 234 226 222 220 217 212 206 203 199 196 194 193 191 189 187 184 183 182 182 181 180 179 179 179 178 178 180 181 184 194 211 235 251 255 259
273 264 259 252 244 242 245 242 234 228 225 220 216 211 205 200 197 195 192 191 188 186 185 184 184 184 182 181 180 178 178 179 178 180 184 188 198 216 226 232 240 250
308 292 278 267 254 247 247 244 238 235 230 225 222 217 210 205 201 195 191 188 186 184 185 186 185 184 183 180 180 178 178 178 177 179 186 191 197 205 205 214 226 231
330 312 295 281 269 258 252 249 247 245 239 233 226 220 217 211 199 189 188 189 186 183 184 184 183 182 181 180 179 178 176 176 176 179 185 190 195 197 194 199 207 213
325 311 300 290 281 272 263 258 255 251 246 241 232 223 220 211 194 184 185 188 186 181 180 181 182 183 182 180 176 174 174 172 173 178 186 191 194 197 197 201 209 220
319 313 307 300 292 282 273 266 261 255 250 245 240 233 223 206 189 181 179 182 181 179 178 178 181 186 186 180 174 169 167 166 169 175 184 192 197 204 215 220 230 241
324 321 314 307 298 289 280 270 263 258 253 247 240 228 208 195 190 187 186 188 186 183 180 176 180 190 191 186 181 174 163 159 168 176 183 195 203 213 229 237 243 255
322 317 313 307 298 290 282 271 259 252 249 245 231 213 198 196 201 199 195 195 192 185 175 170 179 191 193 191 188 181 167 161 173 182 188 201 208 217 235 247 251 257
315 311 308 303 294 287 280 268 253 241 238 237 232 222 211 205 204 201 196 192 186 178 171 174 187 193 193 192 189 182 172 167 180 191 200 214 219 224 238 248 253 258
309 306 303 300 293 284 273 261 249 240 238 238 234 225 216 209 202 197 192 186 181 177 175 184 195 195 191 190 186 179 173 168 183 201 214 228 231 236 245 250 254 260
308 303 299 294 288 279 268 257 247 240 240 240 231 219 212 210 203 195 188 182 179 176 171 176 190 192 188 187 183 178 175 170 190 211 228 241 241 244 251 256 259 261
310 304 297 289 283 276 265 255 244 237 235 236 235 228 216 210 203 194 186 179 175 172 162 162 179 187 186 185 183 180 179 187 214 230 240 248 249 253 258 262 265 264
310 304 296 287 280 272 263 253 244 238 231 228 233 231 218 206 196 187 182 174 166 160 150 151 170 181 183 185 187 189 193 209 237 252 257 259 261 265 269 270 269 267
306 302 295 286 277 270 263 253 243 237 230 226 229 228 220 207 191 177 169 162 154 150 146 150 166 177 182 189 199 207 214 233 260 269 270 273 274 273 275 277 275 272
299 296 291 283 274 268 262 251 242 237 232 227 225 223 218 204 184 168 157 155 158 160 158 155 158 168 178 190 208 226 236 249 271 280 279 281 283 283 283 283 281 280
290 289 285 278 270 266 261 251 243 238 233 226 222 218 210 194 178 163 153 153 159 163 161 157 154 160 173 191 215 236 247 257 272 284 285 287 289 289 289 288 285 285
Height
808 809 810 811 812 814 816 818 820 821 823 824 826 827 828 830 831 831 832 833 833 834 834 834 835 835 835 835 835 836 836 836 836 836 837 837 837 837 837 837 837 837
806 807 809 809 810 812 814 816 818 819 821 823 824 826 827 829 830 831 832 832 833 834 834 835 835 836 836 836 836 836 837 837 837 837 838 838 838 838 838 838 838 838
803 805 806 807 809 810 811 813 815 817 819 821 822 824 825 827 828 829 831 831 832 833 834 835 835 836 836 836 836 837 837 837 837 838 838 838 839 839 839 839 839 839
801 802 804 805 807 808 809 810 812 814 816 818 820 821 823 824 826 828 829 830 831 832 833 834 834 835 835 836 836 837 837 837 837 838 838 838 839 839 839 839 839 839
799 801 802 804 805 806 807 808 809 811 813 816 817 819 820 822 824 826 827 829 830 831 832 833 834 834 835 835 836 836 836 837 837 837 838 838 838 838 839 839 839 839
798 800 801 802 804 805 806 806 807 808 810 813 815 817 818 820 822 823 825 826 828 829 830 831 832 833 834 835 835 836 836 836 836 836 837 837 837 838 838 838 838 838
796 798 799 800 801 802 803 805 806 806 807 809 812 814 815 817 819 820 822 824 825 827 828 829 830 831 833 834 834 835 835 835 835 835 836 836 836 836 837 837 837 837
795 796 798 799 799 800 801 803 804 805 806 807 808 811 813 814 816 817 819 821 822 824 825 827 828 829 830 831 832 833 833 834 834 834 834 834 835 835 835 835 836 836
793 794 796 797 797 798 799 800 802 803 804 805 805 807 809 811 813 814 816 818 820 821 823 824 826 827 828 829 830 831 831 832 832 833 833 833 833 834 834 834 834 834
791 792 794 794 795 796 797 798 799 801 801 802 803 804 805 808 810 811 813 815 817 819 820 821 823 824 826 827 827 828 829 830 830 831 831 832 832 832 832 832 832 832
789 790 791 792 794 795 796 797 798 798 799 799 801 802 802 804 806 808 810 811 813 815 817 819 820 821 822 823 825 826 827 827 828 829 829 830 830 830 830 831 831 831
788 788 789 790 791 792 794 796 796 796 796 796 798 799 800 801 803 804 806 808 811 813 815 816 817 818 819 821 822 823 824 825 826 827 827 828 828 828 829 829 829 829
787 787 787 789 789 790 791 792 793 794 794 794 795 797 798 799 800 802 804 806 808 811 813 814 815 816 817 818 820 821 822 823 824 825 825 826 826 826 827 827 828 828
786 786 787 787 788 788 789 789 790 791 792 793 793 794 796 797 798 800 804 806 806 807 809 811 812 814 815 816 818 819 820 821 822 823 824 824 825 824 825 825 825 826
787 787 786 786 786 786 786 787 787 788 789 791 791 791 793 794 794 796 799 803 804 805 806 808 810 812 812 813 815 817 818 819 820 821 822 823 823 824 824 824 824 824
787 786 784 784 784 783 784 784 785 786 786 787 788 789 790 791 792 793 796 798 800 800 802 805 808 810 811 811 813 815 816 817 818 820 821 822 822 823 823 823 823 823
785 784 783 782 782 782 782 782 783 784 784 785 786 787 788 789 790 791 793 796 798 799 799 801 804 808 809 810 812 813 814 816 817 818 819 820 820 821 821 822 822 822
783 782 782 781 781 781 781 781 781 782 783 783 784 785 786 787 787 788 790 793 796 797 797 798 801 805 808 810 810 811 813 814 816 817 817 818 819 819 820 820 820 820
782 781 781 780 780 780 780 780 780 780 781 782 783 784 785 784 784 786 788 790 792 794 795 798 800 803 806 809 810 810 811 813 815 815 816 817 817 817 818 818 818 817
781 780 780 779 779 778 778 778 779 779 779 780 781 782 782 782 782 784 785 787 789 791 793 796 798 801 804 808 809 809 810 812 813 814 815 815 815 815 816 816 815 815
780 779 779 778 777 777 776 776 776 777 777 778 778 779 779 779 781 782 783 785 787 789 792 794 796 800 805 807 807 808 809 811 812 813 813 813 813 813 814 813 813 813
778 778 777 776 775 775 774 774 774 774 775 776 777 777 777 778 779 780 781 783 786 789 791 793 796 801 804 805 806 807 808 809 810 811 811 811 811 811 811 811 811 810
777 776 775 774 774 773 772 772 772 772 773 773 775 775 776 776 777 778 780 783 786 789 791 794 797 801 803 803 805 806 807 808 809 809 809 809 809 809 809 808 808 807
775 774 773 772 771 770 770 769 770 770 770 771 772 773 774 775 776 777 780 782 785 788 791 794 796 799 800 802 804 805 806 807 808 807 807 807 807 807 806 805 804 804
773 772 771 770 769 768 768 767 767 768 768 769 770 771 772 774 775 776 778 781 784 787 791 793 795 796 799 801 803 804 804 806 806 806 805 805 805 804 803 802 802 801
771 770 769 768 767 766 765 765 765 766 766 767 768 768 770 772 774 775 777 780 783 787 790 792 794 796 798 800 802 803 803 805 805 805 804 803 803 802 801 800 799 798